Location: Voyageurs National Park
(48.5020°N, 92.9292°W)
Time: 20:58:07
(UTC-06:00)

COSMO-SKYMED 1 - Pass Details

Date: 19 January 2018
Orbit: 621 x 623 km, 97.9° (Epoch: 22 February)

Event Time Altitude Azimuth Distance (km) Brightness Sun altitude
Rises 05:33:49 0° 175° (S) 2,892 6.1 -23.0°
Reaches altitude 10° 05:36:02 10° 179° (S) 1,991 5.2 -22.6°
Enters shadow 05:39:41 52° 223° (SW) 777 2.8 -22.0°
